TimeAKDT,TemperatureF,Dew PointF,Humidity,Sea Level PressureIn,VisibilityMPH,Wind Direction,Wind SpeedMPH,Gust SpeedMPH,PrecipitationIn,Events,Conditions,WindDirDegrees,DateUTC
12:02 AM,57.2,55.4,94,29.79,8.0,ENE,3.5,-,0.00,Rain,Light Rain,70,2013-08-17 08:02:00
12:54 AM,57.0,55.9,96,29.80,10.0,ESE,3.5,-,0.00,,Overcast,120,2013-08-17 08:54:00
1:54 AM,57.0,55.0,93,29.78,10.0,ESE,5.8,-,N/A,,Overcast,120,2013-08-17 09:54:00
2:54 AM,57.0,54.0,89,29.78,10.0,East,3.5,-,N/A,,Overcast,100,2013-08-17 10:54:00
3:54 AM,57.0,55.0,93,29.78,10.0,ENE,4.6,-,N/A,,Overcast,60,2013-08-17 11:54:00
4:09 AM,57.2,55.4,94,29.76,10.0,Calm,Calm,-,N/A,,Overcast,0,2013-08-17 12:09:00
4:54 AM,57.9,55.0,90,29.77,10.0,NE,3.5,-,N/A,,Overcast,50,2013-08-17 12:54:00
5:54 AM,55.9,55.0,97,29.77,10.0,SSE,3.5,-,N/A,,Overcast,150,2013-08-17 13:54:00
6:38 AM,57.2,55.4,94,29.76,10.0,East,3.5,-,N/A,,Overcast,100,2013-08-17 14:38:00
6:54 AM,57.0,54.0,89,29.77,10.0,East,3.5,-,N/A,,Overcast,100,2013-08-17 14:54:00
7:54 AM,57.9,55.0,90,29.75,10.0,East,6.9,-,N/A,,Overcast,100,2013-08-17 15:54:00
8:18 AM,59.0,55.4,88,29.75,10.0,Variable,3.5,-,N/A,,Overcast,0,2013-08-17 16:18:00
8:54 AM,57.9,55.0,90,29.76,10.0,SE,5.8,-,N/A,,Overcast,130,2013-08-17 16:54:00
9:54 AM,57.9,55.0,90,29.75,10.0,ESE,5.8,-,N/A,,Overcast,110,2013-08-17 17:54:00
10:54 AM,57.9,55.0,90,29.74,10.0,ESE,6.9,-,N/A,,Overcast,120,2013-08-17 18:54:00
11:11 AM,60.8,55.4,82,29.73,10.0,SE,8.1,-,N/A,,Overcast,130,2013-08-17 19:11:00
11:54 AM,61.0,55.9,83,29.73,10.0,SE,6.9,-,N/A,,Overcast,140,2013-08-17 19:54:00
12:06 PM,60.8,55.4,82,29.72,10.0,SE,6.9,-,N/A,,Overcast,130,2013-08-17 20:06:00
12:54 PM,64.9,57.0,75,29.72,10.0,ESE,8.1,-,N/A,,Mostly Cloudy,120,2013-08-17 20:54:00
1:17 PM,60.8,55.4,82,29.71,10.0,SE,9.2,-,N/A,,Mostly Cloudy,130,2013-08-17 21:17:00
1:54 PM,64.0,55.9,75,29.71,10.0,SE,8.1,-,N/A,,Scattered Clouds,130,2013-08-17 21:54:00
2:54 PM,62.1,54.0,75,29.70,10.0,East,5.8,-,0.00,Rain,Light Rain,100,2013-08-17 22:54:00
3:04 PM,62.6,53.6,72,29.69,10.0,East,5.8,-,0.00,Rain,Light Rain,100,2013-08-17 23:04:00
3:42 PM,62.6,55.4,77,29.68,10.0,SE,10.4,-,0.00,Rain,Light Rain,130,2013-08-17 23:42:00
3:54 PM,60.1,54.0,80,29.69,10.0,SE,9.2,-,0.00,Rain,Light Rain,140,2013-08-17 23:54:00
4:15 PM,59.0,55.4,88,29.68,10.0,ESE,6.9,-,0.00,Rain,Light Rain,110,2013-08-18 00:15:00
4:54 PM,59.0,55.0,87,29.68,10.0,ESE,3.5,-,0.00,Rain,Light Rain,110,2013-08-18 00:54:00
5:11 PM,59.0,55.4,88,29.67,6.0,East,4.6,-,0.00,Rain,Light Rain,90,2013-08-18 01:11:00
5:54 PM,57.9,55.0,90,29.67,10.0,SE,9.2,-,0.01,Rain,Light Rain,130,2013-08-18 01:54:00
6:31 PM,57.2,55.4,94,29.65,5.0,East,4.6,-,0.00,Rain,Light Rain,80,2013-08-18 02:31:00
6:40 PM,57.2,55.4,94,29.65,1.8,ESE,3.5,-,0.01,Rain,Light Rain,110,2013-08-18 02:40:00
6:49 PM,57.2,55.4,94,29.65,2.0,East,5.8,-,0.02,Rain,Light Rain,80,2013-08-18 02:49:00
6:54 PM,57.0,55.0,93,29.66,2.5,East,4.6,-,0.03,Rain,Light Rain,80,2013-08-18 02:54:00
7:06 PM,57.2,55.4,94,29.65,1.2,East,5.8,-,0.03,Rain,Heavy Rain,90,2013-08-18 03:06:00
7:23 PM,57.2,55.4,94,29.64,1.2,East,6.9,-,0.09,Rain,Heavy Rain,90,2013-08-18 03:23:00
7:30 PM,57.2,55.4,94,29.64,1.5,ESE,5.8,-,0.11,Rain,Heavy Rain,110,2013-08-18 03:30:00
7:35 PM,57.2,55.4,94,29.64,3.0,ESE,5.8,-,0.11,Rain,Light Rain,110,2013-08-18 03:35:00
7:54 PM,57.0,55.0,93,29.64,8.0,ESE,5.8,-,0.12,Rain,Light Rain,120,2013-08-18 03:54:00
8:54 PM,55.9,54.0,93,29.62,10.0,Variable,3.5,-,0.00,Rain,Light Rain,0,2013-08-18 04:54:00
9:22 PM,55.4,53.6,94,29.61,10.0,East,3.5,-,0.00,,Overcast,100,2013-08-18 05:22:00
9:54 PM,55.0,54.0,96,29.62,10.0,SE,5.8,-,0.00,Rain,Light Rain,140,2013-08-18 05:54:00
10:41 PM,55.4,53.6,94,29.61,10.0,East,3.5,-,0.00,Rain,Light Rain,90,2013-08-18 06:41:00
10:54 PM,55.0,54.0,96,29.62,10.0,ESE,6.9,-,0.01,Rain,Light Rain,110,2013-08-18 06:54:00
11:54 PM,54.0,53.1,97,29.62,10.0,SE,6.9,-,0.00,Rain,Light Rain,140,2013-08-18 07:54:00